Tracking 20241 objects as of 26-Jan-2020
HD Live streaming from Space Station
objects crossing your sky now

COSMOS 2251 DEB

Track COSMOS 2251 DEB now!
10-day predictions


NORAD ID: 36447
Int'l Code: 1993-036BAW
Perigee: 520.6 km
Apogee: 627.9 km
Inclination: 73.9 °
Period: 96.0 minutes
Semi major axis: 6945 km
RCS: 0.0095 m2 (small)
Launch date: June 16, 1993
Source: Commonwealth of Independent States (former USSR) (CIS)
Launch site: PLESETSK MISSILE AND SPACE COMPLEX (PKMTR)

Note: This is SATELLITE DEBRIS
aabbcc
Your satellite tracking list
Your tracking list is empty




NASA's NSSDC Master Catalog

Two Line Element Set (TLE):
1 36447U 93036BAW 20024.59408256  .00001592  00000-0  12388-3 0  9994
2 36447  73.9320 352.5384 0077305  60.7037 300.1846 14.99927513556597
Source of the keplerian elements: AFSPC